| time (UTC) | temp F | wind direction | speed knots | gust knots | rain 1hr in | rain 24hr in | rain mn in | humidity % | barometer mb |
| 20260504044526 | 39 | 0 | 0.0 | 0.0 | 0.00 | 0.00 | 0.00 | 83 | 1014.0 |
| 20260504043029 | 39 | 0 | 0.0 | 0.0 | 0.00 | 0.00 | 0.00 | 82 | 1013.8 |
| 20260504041534 | 40 | 0 | 0.0 | 0.0 | 0.00 | 0.00 | 0.00 | 82 | 1013.6 |
| 20260504040030 | 40 | 0 | 0.0 | 0.0 | 0.00 | 0.00 | 0.00 | 82 | 1013.6 |
| 20260504034526 | 40 | 0 | 0.0 | 0.0 | 0.00 | 0.00 | 0.00 | 82 | 1013.4 |
| 20260504033028 | 40 | 0 | 0.0 | 0.0 | 0.00 | 0.00 | 0.00 | 81 | 1013.4 |
| 20260504031528 | 41 | 0 | 0.0 | 0.0 | 0.00 | 0.00 | 0.00 | 81 | 1013.3 |
| 20260504030029 | 41 | 0 | 0.0 | 0.0 | 0.00 | 0.00 | 0.00 | 79 | 1013.1 |
| 20260504024528 | 42 | 0 | 0.0 | 0.0 | 0.00 | 0.00 | 0.00 | 78 | 1013.2 |
| 20260504023028 | 42 | 0 | 0.0 | 0.0 | 0.00 | 0.00 | 0.00 | 77 | 1013.2 |
| 20260504021530 | 43 | 0 | 0.0 | 0.0 | 0.00 | 0.00 | 0.00 | 76 | 1013.2 |
| 20260504020028 | 44 | 0 | 0.0 | 0.0 | 0.00 | 0.00 | 0.00 | 75 | 1013.0 |
| 20260504014534 | 44 | 0 | 0.0 | 0.0 | 0.00 | 0.00 | 0.00 | 73 | 1013.1 |
| 20260504013032 | 45 | 0 | 0.0 | 0.0 | 0.00 | 0.00 | 0.00 | 73 | 1013.0 |
| 20260504011530 | 47 | 0 | 0.0 | 0.0 | 0.00 | 0.00 | 0.00 | 70 | 1012.8 |
| 20260504010028 | 48 | 0 | 0.0 | 0.0 | 0.00 | 0.00 | 0.00 | 66 | 1012.6 |
| 20260504004529 | 50 | 0 | 0.0 | 0.0 | 0.00 | 0.00 | 0.00 | 59 | 1012.4 |
| 20260504003032 | 52 | 0 | 0.0 | 0.0 | 0.00 | 0.00 | 0.00 | 59 | 1012.2 |
| 20260504001531 | 54 | 0 | 0.0 | 0.0 | 0.00 | 0.00 | 0.00 | 50 | 1012.0 |
| 20260504000028 | 56 | 0 | 0.0 | 1.7 | 0.00 | 0.00 | 0.00 | 49 | 1011.8 |
| 20260503234539 | 57 | 268 | 0.0 | 4.3 | 0.00 | 0.00 | 0.00 | 38 | 1011.7 |
| 20260503233036 | 58 | 0 | 0.0 | 3.5 | 0.00 | 0.00 | 0.00 | 37 | 1011.6 |
| 20260503231533 | 58 | 232 | 1.7 | 7.0 | 0.00 | 0.00 | 0.00 | 35 | 1011.6 |
| 20260503230028 | 59 | 268 | 0.9 | 3.5 | 0.00 | 0.00 | 0.00 | 34 | 1011.4 |
| 20260503224529 | 59 | 277 | 1.7 | 8.7 | 0.00 | 0.00 | 0.00 | 35 | 1011.4 |
| 20260503223027 | 59 | 270 | 1.7 | 6.1 | 0.00 | 0.00 | 0.00 | 34 | 1011.4 |
| 20260503221534 | 59 | 300 | 3.5 | 11.3 | 0.00 | 0.00 | 0.00 | 33 | 1011.3 |
| 20260503220028 | 60 | 261 | 2.6 | 7.0 | 0.00 | 0.00 | 0.00 | 32 | 1011.2 |
| 20260503214530 | 60 | 267 | 1.7 | 7.0 | 0.00 | 0.00 | 0.00 | 33 | 1011.2 |
| 20260503213027 | 60 | 315 | 5.2 | 12.2 | 0.00 | 0.00 | 0.00 | 32 | 1011.3 |
| 20260503211528 | 59 | 292 | 2.6 | 9.6 | 0.00 | 0.00 | 0.00 | 34 | 1011.4 |
| 20260503210028 | 59 | 278 | 2.6 | 10.4 | 0.00 | 0.00 | 0.00 | 33 | 1011.3 |
| 20260503204530 | 59 | 267 | 2.6 | 9.6 | 0.00 | 0.00 | 0.00 | 36 | 1011.5 |
| 20260503203036 | 58 | 287 | 2.6 | 10.4 | 0.00 | 0.00 | 0.00 | 36 | 1011.6 |
| 20260503201530 | 58 | 308 | 1.7 | 9.6 | 0.00 | 0.00 | 0.00 | 35 | 1011.6 |
| 20260503200029 | 58 | 279 | 4.3 | 10.4 | 0.00 | 0.00 | 0.00 | 38 | 1011.7 |
| 20260503194528 | 57 | 292 | 5.2 | 13.9 | 0.00 | 0.00 | 0.00 | 33 | 1012.0 |
| 20260503193028 | 57 | 242 | 3.5 | 12.2 | 0.00 | 0.00 | 0.00 | 38 | 1012.0 |
| 20260503191534 | 57 | 180 | 3.5 | 12.2 | 0.00 | 0.00 | 0.00 | 37 | 1012.0 |
| 20260503190028 | 57 | 267 | 4.3 | 12.2 | 0.00 | 0.00 | 0.00 | 36 | 1012.2 |
| 20260503184529 | 57 | 293 | 5.2 | 12.2 | 0.00 | 0.00 | 0.00 | 35 | 1012.4 |
| 20260503183028 | 57 | 0 | 3.5 | 11.3 | 0.00 | 0.00 | 0.00 | 39 | 1012.5 |
| 20260503181529 | 56 | 278 | 3.5 | 18.2 | 0.00 | 0.00 | 0.00 | 39 | 1012.6 |
| 20260503180030 | 55 | 277 | 2.6 | 12.2 | 0.00 | 0.00 | 0.00 | 40 | 1012.5 |
| 20260503174527 | 54 | 277 | 3.5 | 12.2 | 0.00 | 0.00 | 0.00 | 40 | 1012.8 |
| 20260503173029 | 54 | 0 | 4.3 | 9.6 | 0.00 | 0.00 | 0.00 | 40 | 1012.7 |
| 20260503171528 | 54 | 301 | 2.6 | 9.6 | 0.00 | 0.00 | 0.00 | 44 | 1013.0 |
| 20260503081531 | 37 | 0 | 0.0 | 0.0 | 0.00 | 0.01 | 0.00 | 85 | 1011.1 |
| 20260503071526 | 37 | 0 | 0.0 | 0.0 | 0.00 | 0.01 | 0.00 | 83 | 1010.6 |